Hourly Data Report for October 18, 2020

SHEARWATER RCS
NOVA SCOTIA
Current Station Operator: ECCC - MSC

44°37'47.000" N
63°30'48.000" W
24.00 m
8205092
71264
AAW

Download Data

Hourly Data (October 2020)
Hourly Data Report for October 18, 2020
TIME Temp Definition
°C
Dew Point Definition
°C
Rel Hum Definition
%
Wind Dir Definition
10's deg

Wind Spd Definition
km/h
Visibility Definition
km
Stn Press Definition
kPa
Hmdx Definition


Wind Chill Definition


Weather Definition


00:00 6.7 3.4 80 29 9   102.45     LegendNANA
01:00 6.6 3.3 80 29 12   102.59     LegendNANA
02:00 6.1 3.4 83 31 13   102.67     LegendNANA
03:00 5.3 3.0 85 32 11   102.71     LegendNANA
04:00 4.6 2.1 84 33 6   102.78     LegendNANA
05:00 4.2 1.5 82 31 4   102.88     LegendNANA
06:00 2.3 1.3 93   0   102.98     LegendNANA
07:00 2.8 1.7 92 32 4   103.03     LegendNANA
08:00 6.1 2.2 76 30 4   103.11     LegendNANA
09:00 8.2 2.1 65 32 12   103.09     LegendNANA
10:00 10.0 1.4 55 33 19   103.09     LegendNANA
11:00 11.9 0.1 44 33 18   103.09     LegendNANA
12:00 13.6 0.0 39 36 15   103.04     LegendNANA
13:00 14.9 0.0 36 2 12   103.02     LegendNANA
14:00 14.9 0.6 38 4 11   103.01     LegendNANA
15:00 15.5 1.5 39 4 12   102.99     LegendNANA
16:00 12.8 5.0 59 14 12   103.01     LegendNANA
17:00 11.9 6.1 67 12 7   103.00     LegendNANA
18:00 8.7 5.7 81 6 5   103.01     LegendNANA
19:00 8.8 6.0 82 3 4   102.99     LegendNANA
20:00 8.4 5.6 83 2 5   103.01     LegendNANA
21:00 7.6 5.4 86 4 8   102.97     LegendNANA
22:00 8.2 6.1 86 3 8   102.94     LegendNANA
23:00 8.2 6.1 87 4 8   102.92     LegendNANA

Notes on Data Quality.

Legend

  • E = Estimated
  • M = Missing
  • NA = Not Available*
  • [empty] = Indicates an unobserved value
Date modified: